User: anonymous   Login
Location: Unspecified
(50.1700°N, 6.8600°E)
Time: 17:32:19
(UTC+00:00)
Language:

Cosmos 2180 Rocket - Orbit

View from above orbital plane
View from above orbital plane
View from above satellite
View from above satellite

Ground track
Ground track

The orbit data is extracted from the following two-line orbital elements,

1 21876U 92008B   19144.10112032 -.00000006  00000-0 -22140-4 0  9993
2 21876  82.9239 312.5439 0033937 222.0269 276.8677 13.75635454368434
Epoch (UTC): 24 May 2019 02:25:36
Eccentricity: 0.0033937
inclination: 82.9239°
perigee height: 954 km
apogee height: 1004 km
right ascension of ascending node: 312.5439°
argument of perigee: 222.0269°
revolutions per day: 13.75635454
mean anomaly at epoch: 276.8677°
orbit number at epoch: 36843

The dashed part of the orbit path shows where the satellite is in the earth's shadow,  

DLR